• en Suisse
  • Liste des pays
  • À 7 jours
  • Température de l'eau
  • Carte satellitaire
  • Carte météo
  • Widgets météo
  • user-avatar
    Se connecter

    Météo par heure à Lunino

    Ce jour, 14 Novembre, Mercredi

    Heure Température Précipitation Vent Pression Humidité
    00:00 0°C° 0.7 mm 7 m/s 752 mmHg 75%
    01:00 +1°C° 0.7 mm 6 m/s 752 mmHg 78%
    02:00 +1°C° 0 mm 5 m/s 751 mmHg 81%
    03:00 +1°C° 1.7 mm 5 m/s 750 mmHg 84%
    04:00 +1°C° 1.7 mm 5 m/s 750 mmHg 87%
    05:00 +1°C° 1.7 mm 5 m/s 749 mmHg 89%
    06:00 +1°C° 1 mm 4 m/s 749 mmHg 91%
    07:00 +1°C° 1 mm 4 m/s 749 mmHg 93%
    08:00 +3°C° 0 mm 4 m/s 749 mmHg 95%
    09:00 +3°C° 0.4 mm 4 m/s 749 mmHg 95%
    10:00 +4°C° 0.4 mm 4 m/s 749 mmHg 94%
    11:00 +5°C° 0.4 mm 4 m/s 750 mmHg 94%
    12:00 +5°C° 0.8 mm 4 m/s 750 mmHg 93%
    13:00 +5°C° 0.8 mm 4 m/s 750 mmHg 92%
    14:00 +5°C° 0 mm 4 m/s 750 mmHg 90%
    15:00 +5°C° 0.5 mm 4 m/s 751 mmHg 89%
    16:00 +5°C° 0.5 mm 4 m/s 751 mmHg 89%
    17:00 +5°C° 0.5 mm 4 m/s 751 mmHg 88%
    18:00 +4°C° 0.2 mm 4 m/s 752 mmHg 88%
    19:00 +4°C° 0.2 mm 4 m/s 752 mmHg 89%
    20:00 +4°C° 0.2 mm 4 m/s 752 mmHg 89%
    21:00 +4°C° 0.2 mm 4 m/s 753 mmHg 90%
    22:00 +4°C° 0.2 mm 4 m/s 753 mmHg 91%
    23:00 +3°C° 0.2 mm 3 m/s 753 mmHg 91%

    Demain, 15 Novembre, Jeudi

    Heure Température Précipitation Vent Pression Humidité
    00:00 +3°C° 0.3 mm 3 m/s 754 mmHg 92%
    01:00 +3°C° 0.3 mm 3 m/s 754 mmHg 93%
    02:00 +3°C° 0.3 mm 3 m/s 754 mmHg 94%
    03:00 +3°C° 0.3 mm 3 m/s 755 mmHg 94%
    04:00 +3°C° 0.3 mm 3 m/s 755 mmHg 94%
    05:00 +3°C° 0.3 mm 3 m/s 755 mmHg 94%
    06:00 +3°C° 0.2 mm 3 m/s 756 mmHg 93%
    07:00 +3°C° 0.2 mm 3 m/s 756 mmHg 92%
    08:00 +2°C° 0.2 mm 3 m/s 757 mmHg 91%
    09:00 +2°C° 0.1 mm 3 m/s 757 mmHg 89%
    10:00 +2°C° 0.1 mm 3 m/s 757 mmHg 87%
    11:00 +2°C° 0.1 mm 3 m/s 758 mmHg 85%
    12:00 +2°C° 0 mm 3 m/s 758 mmHg 84%
    13:00 +2°C° 0 mm 3 m/s 759 mmHg 82%
    14:00 +2°C° 0 mm 3 m/s 759 mmHg 81%
    15:00 +1°C° 0 mm 3 m/s 759 mmHg 83%
    16:00 +1°C° 0 mm 3 m/s 760 mmHg 85%
    17:00 0°C° 0 mm 3 m/s 760 mmHg 86%
    18:00 0°C° 0 mm 3 m/s 761 mmHg 87%
    19:00 +1°C° 0 mm 2 m/s 761 mmHg 89%
    20:00 +1°C° 0 mm 2 m/s 762 mmHg 90%
    21:00 +1°C° 0 mm 2 m/s 762 mmHg 90%
    22:00 +1°C° 0 mm 2 m/s 762 mmHg 91%
    23:00 +2°C° 0 mm 2 m/s 763 mmHg 91%

    Après-demain, 16 Novembre, Vendredi

    Heure Température Précipitation Vent Pression Humidité
    00:00 +2°C° 0 mm 2 m/s 763 mmHg 92%
    01:00 +1°C° 0 mm 2 m/s 763 mmHg 92%
    02:00 +1°C° 0 mm 2 m/s 764 mmHg 93%
    03:00 +1°C° 0 mm 2 m/s 764 mmHg 93%
    04:00 +1°C° 0 mm 2 m/s 764 mmHg 93%
    05:00 +1°C° 0 mm 2 m/s 764 mmHg 94%
    06:00 -1°C° 0 mm 2 m/s 765 mmHg 94%
    07:00 -1°C° 0 mm 2 m/s 765 mmHg 94%
    08:00 -1°C° 0 mm 2 m/s 765 mmHg 94%
    09:00 -1°C° 0 mm 2 m/s 766 mmHg 91%
    10:00 +1°C° 0 mm 2 m/s 766 mmHg 88%
    11:00 +2°C° 0 mm 2 m/s 766 mmHg 85%
    12:00 +2°C° 0 mm 2 m/s 766 mmHg 83%
    13:00 +2°C° 0 mm 2 m/s 766 mmHg 81%
    14:00 +3°C° 0 mm 2 m/s 766 mmHg 79%
    15:00 +2°C° 0 mm 2 m/s 766 mmHg 82%
    16:00 +1°C° 0 mm 2 m/s 766 mmHg 86%
    17:00 -1°C° 0 mm 2 m/s 766 mmHg 89%
    18:00 -1°C° 0 mm 2 m/s 766 mmHg 88%
    19:00 -2°C° 0 mm 2 m/s 767 mmHg 88%
    20:00 -2°C° 0 mm 2 m/s 767 mmHg 87%
    21:00 -2°C° 0 mm 2 m/s 767 mmHg 85%
    22:00 -2°C° 0 mm 2 m/s 767 mmHg 83%
    23:00 -2°C° 0 mm 2 m/s 767 mmHg 81%

    17 Novembre, Samedi

    Heure Température Précipitation Vent Pression Humidité
    00:00 -3°C° 0 mm 2 m/s 767 mmHg 79%
    01:00 -3°C° 0 mm 2 m/s 767 mmHg 78%
    02:00 -1°C° 0 mm 1 m/s 767 mmHg 76%
    03:00 -1°C° 0 mm 1 m/s 767 mmHg 73%
    04:00 -1°C° 0 mm 1 m/s 767 mmHg 71%
    05:00 -1°C° 0 mm 1 m/s 767 mmHg 69%
    06:00 -1°C° 0 mm 1 m/s 767 mmHg 68%
    07:00 -1°C° 0 mm 1 m/s 767 mmHg 66%
    08:00 -1°C° 0 mm 1 m/s 767 mmHg 64%
    09:00 0°C° 0 mm 1 m/s 767 mmHg 59%
    10:00 +1°C° 0 mm 1 m/s 767 mmHg 53%
    11:00 +2°C° 0 mm 1 m/s 766 mmHg 48%
    12:00 +3°C° 0 mm 1 m/s 766 mmHg 47%
    13:00 +3°C° 0 mm 1 m/s 765 mmHg 47%
    14:00 +4°C° 0 mm 1 m/s 765 mmHg 46%
    15:00 +3°C° 0 mm 1 m/s 765 mmHg 51%
    16:00 +2°C° 0 mm 1 m/s 764 mmHg 55%
    17:00 +1°C° 0 mm 1 m/s 764 mmHg 60%
    18:00 +1°C° 0 mm 1 m/s 764 mmHg 62%
    19:00 -1°C° 0 mm 2 m/s 763 mmHg 65%
    20:00 -1°C° 0 mm 2 m/s 763 mmHg 67%
    21:00 -1°C° 0 mm 2 m/s 763 mmHg 70%
    22:00 -1°C° 0 mm 2 m/s 762 mmHg 73%
    23:00 -1°C° 0 mm 3 m/s 762 mmHg 76%

    18 Novembre, Dimanche

    Heure Température Précipitation Vent Pression Humidité
    00:00 -1°C° 0 mm 3 m/s 761 mmHg 81%
    01:00 -1°C° 0 mm 3 m/s 760 mmHg 85%
    02:00 -1°C° 0 mm 3 m/s 760 mmHg 89%
    03:00 -1°C° 0 mm 4 m/s 759 mmHg 90%
    04:00 -1°C° 0 mm 4 m/s 758 mmHg 92%
    05:00 -1°C° 0 mm 4 m/s 758 mmHg 93%
    06:00 0°C° 0 mm 4 m/s 757 mmHg 93%
    07:00 0°C° 0 mm 4 m/s 757 mmHg 92%
    08:00 0°C° 0 mm 4 m/s 756 mmHg 92%
    09:00 0°C° 0.1 mm 4 m/s 756 mmHg 91%
    10:00 +1°C° 0.1 mm 4 m/s 755 mmHg 90%
    11:00 +1°C° 0.1 mm 4 m/s 755 mmHg 89%
    12:00 +1°C° 0.1 mm 4 m/s 754 mmHg 87%
    13:00 +1°C° 0.1 mm 4 m/s 754 mmHg 84%
    14:00 +1°C° 0.1 mm 4 m/s 754 mmHg 82%
    15:00 +1°C° 0 mm 4 m/s 754 mmHg 83%
    16:00 +1°C° 0 mm 4 m/s 753 mmHg 85%
    17:00 0°C° 0 mm 4 m/s 753 mmHg 86%
    18:00 0°C° 0 mm 5 m/s 753 mmHg 86%
    19:00 -1°C° 0 mm 5 m/s 753 mmHg 87%
    20:00 -1°C° 0 mm 5 m/s 753 mmHg 87%
    21:00 -1°C° 0.1 mm 5 m/s 752 mmHg 86%
    22:00 0°C° 0.1 mm 5 m/s 752 mmHg 86%
    23:00 0°C° 0.1 mm 5 m/s 752 mmHg 86%

    19 Novembre, Lundi

    Heure Température Précipitation Vent Pression Humidité
    00:00 0°C° 0.3 mm 5 m/s 751 mmHg 86%
    01:00 -1°C° 0.3 mm 6 m/s 751 mmHg 87%
    02:00 +1°C° 0.3 mm 6 m/s 751 mmHg 87%
    03:00 +1°C° 0.1 mm 6 m/s 751 mmHg 87%
    04:00 -1°C° 0.1 mm 6 m/s 751 mmHg 88%
    05:00 -1°C° 0.1 mm 6 m/s 751 mmHg 88%
    06:00 -1°C° 0.2 mm 6 m/s 751 mmHg 88%
    07:00 0°C° 0.2 mm 5 m/s 751 mmHg 88%
    08:00 0°C° 0.2 mm 5 m/s 751 mmHg 87%
    09:00 -1°C° 0.2 mm 6 m/s 751 mmHg 87%
    10:00 -1°C° 0.2 mm 6 m/s 751 mmHg 86%
    11:00 -1°C° 0.2 mm 6 m/s 751 mmHg 85%
    12:00 -1°C° 0.1 mm 6 m/s 752 mmHg 85%
    13:00 -1°C° 0.1 mm 6 m/s 752 mmHg 84%
    14:00 -1°C° 0.1 mm 6 m/s 752 mmHg 84%
    15:00 0°C° 0.1 mm 5 m/s 752 mmHg 85%
    16:00 -1°C° 0.1 mm 5 m/s 752 mmHg 86%
    17:00 -1°C° 0.1 mm 5 m/s 752 mmHg 87%
    18:00 -1°C° 0.1 mm 5 m/s 752 mmHg 88%
    19:00 -2°C° 0.1 mm 4 m/s 753 mmHg 89%
    20:00 -2°C° 0.1 mm 4 m/s 753 mmHg 90%
    21:00 -2°C° 0.1 mm 4 m/s 753 mmHg 88%
    22:00 -2°C° 0.1 mm 5 m/s 753 mmHg 87%
    23:00 -4°C° 0.1 mm 5 m/s 754 mmHg 86%
    Voir plus